Temperature
18 17 17 17 17 17 17 17 17 17 17 17 17 17 17 17 17 17 17 17 16 16 16 16 16 16 16 16 16 16 16 16 16 16 16 16 16 15 15 15 15 15 15
17 17 17 17 17 17 17 17 17 17 17 17 17 17 17 17 17 17 17 16 16 16 16 16 16 16 16 16 16 16 16 16 16 16 16 16 15 15 15 15 15 15 15
17 17 17 17 17 17 17 17 17 17 17 17 17 17 17 17 17 17 16 16 16 16 16 16 16 16 16 16 16 16 16 16 16 16 16 16 15 15 15 15 15 15 15
17 17 17 17 17 17 17 17 17 16 16 17 17 17 16 16 16 16 16 16 16 16 16 16 16 16 16 16 16 16 15 16 16 16 15 15 15 15 15 15 15 15 15
17 17 17 17 17 17 17 17 16 16 16 16 16 16 16 16 16 16 16 16 16 16 16 16 16 16 16 16 16 15 15 15 16 15 15 15 15 15 15 15 15 15 15
17 17 17 17 17 17 17 16 16 16 16 16 16 16 16 16 16 16 16 16 16 16 16 16 16 16 15 15 15 15 15 15 15 15 15 15 15 15 15 15 15 15 15
17 17 17 17 17 16 16 16 16 16 16 16 16 16 16 16 16 16 16 16 16 16 16 16 15 15 15 15 15 15 15 15 15 15 15 15 15 15 15 15 15 15 15
17 17 17 17 17 16 16 16 16 16 16 16 16 16 16 16 16 16 16 16 16 16 16 16 15 15 15 15 15 15 15 15 15 15 15 15 15 15 15 15 15 15 15
17 17 17 17 16 16 16 16 16 16 16 16 16 16 16 16 16 16 16 16 16 16 16 16 16 16 15 15 15 15 15 15 15 15 15 15 15 15 15 15 15 15 15
16 16 16 16 16 16 16 16 16 16 16 16 16 16 16 16 16 16 16 16 16 16 16 16 16 16 15 15 15 15 15 15 15 15 15 15 15 15 15 15 15 15 15
16 16 16 16 16 16 16 16 16 16 16 16 16 16 16 16 16 16 16 16 16 16 16 16 16 16 16 15 15 15 15 15 15 15 15 15 15 15 15 15 15 15 15
16 16 16 16 16 16 16 16 16 16 16 16 16 16 16 16 16 16 16 17 16 16 16 16 16 16 16 16 15 15 15 15 15 15 15 15 15 15 15 15 15 15 15
17 17 16 16 16 16 16 16 16 16 16 16 16 16 16 16 16 16 16 16 16 17 17 17 16 16 16 16 16 15 15 15 15 15 15 15 15 15 15 14 14 14 14
17 17 17 16 16 16 16 16 16 16 16 16 16 16 16 16 16 16 16 16 16 16 17 17 17 16 16 16 16 16 15 15 15 15 15 15 15 15 15 14 14 14 14
17 17 17 16 16 16 16 16 16 16 16 16 16 16 16 16 16 16 16 16 16 16 16 17 16 16 16 16 16 16 16 15 15 15 15 15 15 15 14 14 14 14 14
17 16 16 16 16 16 16 16 16 16 16 16 16 15 15 16 16 16 16 16 16 16 16 16 16 16 16 16 16 16 16 16 15 15 15 15 15 15 14 14 14 14 14
17 16 16 16 16 16 16 16 16 16 15 15 15 15 15 15 15 15 15 16 16 16 16 16 16 16 16 16 16 16 16 16 15 15 15 15 15 15 14 14 14 14 14
16 16 16 16 16 16 16 16 16 16 15 15 15 15 15 15 15 15 15 15 15 15 15 15 15 15 15 15 15 15 15 15 15 15 15 15 15 15 15 14 14 14 14
16 16 16 16 16 16 16 16 16 15 15 15 15 15 15 15 15 15 15 15 15 15 15 15 15 15 15 15 15 15 15 15 15 15 15 15 15 14 14 14 14 14 14
16 16 16 16 16 16 16 16 15 15 15 15 15 15 15 15 15 15 15 15 15 15 14 14 14 15 15 15 15 15 15 15 15 14 14 14 14 14 14 14 14 14 14
16 16 16 16 16 16 16 16 15 15 15 15 15 15 15 15 15 15 14 14 14 14 14 14 14 14 14 14 14 14 14 14 14 14 14 14 14 14 14 14 14 13 13
16 16 16 16 16 16 16 16 15 15 15 15 15 15 15 14 14 14 14 14 14 14 14 13 13 13 13 13 13 13 13 13 13 13 13 13 13 13 13 13 13 13 13
16 16 16 16 16 16 15 15 15 15 15 15 15 15 14 14 14 14 14 14 13 13 13 13 13 13 13 13 13 13 12 12 12 12 12 13 13 12 12 12 12 12 12
16 16 16 16 15 15 15 15 15 15 15 14 14 14 14 14 14 13 13 13 13 13 13 12 12 12 12 12 12 12 11 11 11 11 11 11 12 12 12 12 12 11 11
16 15 15 15 15 15 15 14 14 14 14 14 14 13 13 13 13 13 13 13 12 12 12 12 11 11 11 11 11 11 11 11 11 11 11 10 11 11 11 11 11 11 11
15 15 15 14 14 14 14 14 14 14 13 13 13 13 12 12 12 12 12 12 12 11 11 11 11 11 11 10 10 10 10 10 10 10 10 9 9 9 9 10 10 10 10
Wind_Speed
4 3 3 3 3 3 3 3 3 3 3 3 4 5 5 6 6 6 6 8 8 8 8 8 8 8 8 8 8 8 9 9 9 9 9 9 8 8 8 8 8 8 7
6 4 3 3 3 3 3 3 3 3 2 2 2 4 4 5 6 6 5 6 7 8 8 8 8 8 8 8 8 8 8 8 9 9 9 8 8 8 8 8 8 8 7
8 6 4 3 3 4 4 5 4 4 3 2 2 3 3 3 4 5 4 4 5 6 7 7 7 8 8 8 8 8 8 9 9 9 9 9 8 8 8 8 8 8 8
9 7 4 3 4 5 5 3 3 3 2 2 2 1 2 2 3 3 3 4 4 5 6 6 7 7 7 8 8 8 8 9 9 10 10 10 9 9 9 9 9 9 9
10 8 5 5 6 5 3 3 2 2 2 2 2 2 1 1 1 2 3 4 4 4 5 5 6 7 7 7 8 9 9 9 9 10 10 10 10 10 10 10 10 10 9
11 9 6 6 6 4 3 3 3 3 2 3 3 3 2 1 0 1 2 3 4 5 5 5 5 6 7 7 8 8 9 9 10 10 10 11 11 11 11 11 11 11 11
11 9 5 5 5 4 4 4 3 4 2 2 3 3 3 2 1 1 1 2 3 4 5 5 5 5 5 7 8 8 8 9 10 10 11 11 11 12 12 12 12 12 12
11 10 7 5 5 4 4 4 3 3 2 2 3 3 1 2 2 1 1 2 3 3 4 5 6 6 6 5 7 8 9 9 9 9 10 11 12 12 13 13 13 13 13
11 10 9 7 6 5 5 4 4 5 3 1 1 3 3 3 1 2 1 1 2 2 3 4 6 7 7 7 7 7 8 8 8 8 9 10 11 12 12 12 12 13 13
10 10 10 8 6 5 5 5 4 3 5 3 1 1 1 3 2 0 2 2 2 3 3 4 5 6 7 7 8 9 9 9 9 9 9 10 11 11 12 12 12 12 13
7 9 9 8 6 5 5 5 4 4 3 4 3 2 2 2 1 2 1 2 2 2 3 3 4 5 7 8 8 9 10 10 10 10 10 10 10 11 11 11 11 11 12
4 6 8 7 7 5 6 5 5 5 4 4 3 3 3 3 2 2 2 2 2 2 2 3 4 6 7 8 9 10 11 11 11 11 11 10 10 10 10 10 10 10 11
4 6 6 6 5 6 6 6 5 5 5 5 4 3 3 2 3 3 3 2 1 2 2 2 4 6 7 8 9 11 11 12 12 12 12 11 11 11 11 11 11 11 11
6 7 7 7 6 7 7 6 4 4 4 4 5 4 3 3 3 3 4 3 1 1 2 3 2 4 7 8 10 10 9 12 12 13 13 13 12 12 12 12 12 13 12
5 7 7 7 7 7 7 6 4 4 5 4 4 4 3 3 3 3 3 3 4 2 3 3 2 2 4 7 10 9 10 12 13 13 14 14 14 14 13 14 14 14 14
6 7 7 7 6 6 6 6 4 4 5 4 4 4 3 2 2 3 3 3 3 4 3 2 3 2 3 4 7 8 10 11 11 13 13 14 15 15 15 15 15 15 14
7 8 8 7 7 6 6 6 6 6 6 5 4 5 4 3 3 3 3 3 3 3 3 2 2 2 2 2 3 4 6 7 8 11 12 14 15 15 15 15 15 15 14
7 8 8 8 7 7 7 7 7 7 7 7 6 5 5 4 4 3 3 3 3 4 4 4 2 2 2 2 2 2 4 5 6 8 11 12 13 13 14 14 14 15 15
7 7 7 7 7 7 7 7 7 7 7 7 6 6 5 5 5 4 4 4 3 3 3 3 2 1 2 1 1 2 2 3 4 6 8 9 10 12 13 13 13 14 15
7 6 6 7 6 6 6 7 7 7 7 6 6 6 6 6 6 6 5 5 3 3 3 2 2 2 2 2 1 2 3 2 3 4 5 6 7 9 10 11 12 13 13
7 6 6 5 5 5 5 6 7 7 7 6 5 5 5 5 6 4 3 3 3 3 2 2 2 1 1 1 2 2 3 3 3 2 3 3 4 5 7 9 10 12 13
5 6 6 6 5 4 6 8 7 6 5 5 4 3 2 2 3 4 4 3 4 3 3 2 1 2 2 2 2 2 2 2 3 1 2 4 3 4 6 6 8 10 12
6 5 5 5 4 4 5 6 7 5 4 3 3 2 1 1 2 2 2 2 2 2 3 3 3 3 3 3 2 2 2 3 4 3 2 4 3 4 5 6 8 10 10
5 5 4 4 3 2 4 5 5 5 4 3 2 2 2 1 2 2 3 2 2 1 0 1 2 2 2 2 2 2 3 4 4 2 2 3 3 4 5 6 7 8 8
5 4 4 4 4 2 3 5 6 5 4 3 3 2 2 2 2 3 4 3 2 2 4 4 2 2 3 3 1 0 1 2 3 3 1 2 3 4 5 5 6 6 8
5 6 6 5 5 4 5 5 6 5 5 4 4 4 6 5 6 5 4 3 2 2 3 4 5 6 5 6 5 2 1 2 2 3 1 2 3 3 4 3 4 6 7
Wind_Direction
154 152 146 137 127 118 110 107 103 103 104 121 145 155 157 156 156 157 170 178 178 175 172 169 169 170 168 168 167 165 163 161 159 158 159 157 158 155 155 156 155 152 152
168 162 158 157 154 141 126 119 111 107 101 116 127 145 152 154 157 158 167 180 182 181 180 180 181 179 178 179 177 177 177 175 174 172 170 169 170 169 169 170 171 167 167
177 169 165 167 167 148 126 107 96 96 102 103 102 120 133 145 156 160 165 174 186 191 191 194 196 194 190 187 186 187 187 186 186 184 182 182 181 182 183 182 181 181 181
182 171 167 173 164 143 129 115 104 97 93 98 97 96 114 142 164 169 173 181 187 195 201 204 205 206 205 201 198 198 197 196 195 195 193 194 195 195 194 194 194 194 196
184 176 172 168 158 139 133 136 105 114 124 118 111 69 55 85 170 185 196 201 201 202 208 217 213 214 217 212 208 207 206 207 205 204 205 206 206 207 207 207 206 208 209
180 175 167 162 154 138 134 126 116 93 105 116 102 69 35 19 29 227 230 216 212 211 212 218 220 225 229 228 221 216 214 216 213 212 213 215 216 215 216 217 217 217 218
174 169 164 159 158 156 158 143 120 106 95 101 91 57 23 24 18 301 267 234 228 223 216 217 219 226 235 238 233 224 220 221 220 217 218 221 222 221 221 223 225 225 225
172 174 166 166 161 149 145 146 131 120 107 116 123 108 48 356 349 344 296 241 244 235 227 225 221 223 230 237 241 238 230 228 229 226 225 226 228 229 228 229 230 231 232
176 176 174 166 163 161 165 165 151 143 143 117 122 142 149 209 289 329 317 272 254 236 240 238 230 229 230 234 241 244 238 233 231 231 233 235 235 235 234 233 234 235 235
179 179 175 170 167 166 167 174 166 150 142 147 128 88 128 147 153 267 321 312 281 244 242 243 240 236 233 233 239 242 241 237 235 235 236 238 239 239 239 237 237 238 238
180 179 174 170 170 170 172 168 161 155 149 155 157 145 120 88 109 148 239 305 309 273 254 246 244 240 236 236 240 243 241 239 237 238 239 242 243 243 241 239 242 245 244
177 178 175 173 172 171 172 174 170 165 162 154 155 157 156 158 177 165 189 237 268 294 281 253 242 241 240 238 241 243 242 240 239 240 242 244 246 247 245 245 245 248 249
183 185 178 173 173 176 174 168 168 171 169 165 168 172 174 176 162 159 162 191 244 294 304 272 245 243 241 237 240 242 243 242 242 242 244 245 245 246 248 249 251 254 258
187 180 179 179 179 177 174 168 167 175 172 174 177 172 177 187 178 174 168 159 170 296 295 278 281 245 241 236 240 241 242 243 242 243 244 244 245 248 250 253 256 258 259
179 178 180 178 181 178 173 167 175 181 174 182 182 182 188 196 191 190 179 170 164 195 252 270 274 278 251 243 244 237 238 244 244 245 246 246 246 248 252 255 257 258 257
174 172 179 181 180 179 177 174 177 182 179 185 184 182 189 193 192 186 184 185 180 179 220 252 253 275 280 267 252 238 242 248 249 248 249 250 251 253 255 256 256 256 256
179 181 183 182 182 184 182 179 184 183 187 191 190 191 198 186 188 191 182 179 183 177 210 259 261 275 271 278 284 257 252 249 252 251 250 252 254 256 257 257 256 255 256
186 186 181 181 186 188 185 186 192 192 194 197 198 193 202 191 193 194 190 193 196 194 200 234 261 271 265 279 279 276 271 262 258 261 256 255 256 257 257 257 257 258 258
185 183 178 184 190 189 191 197 197 196 199 201 195 196 203 193 202 202 199 202 205 200 200 216 251 265 282 297 303 294 290 283 276 269 266 264 264 264 263 261 260 259 259
181 180 184 188 189 189 193 197 197 196 199 202 201 202 205 203 209 204 204 207 200 193 193 212 243 266 278 296 297 293 299 294 295 295 283 278 275 274 269 267 264 261 261
185 180 179 181 182 184 195 190 191 192 192 196 196 199 203 201 201 193 194 200 191 195 200 216 241 260 283 296 282 280 279 294 291 287 298 295 287 282 280 274 270 266 266
177 172 175 174 177 196 197 186 180 181 181 185 189 191 192 191 188 173 169 164 163 180 199 206 227 245 273 275 279 278 284 297 293 295 289 292 281 278 280 273 273 274 275
168 167 171 168 175 188 180 174 172 161 161 169 176 173 170 154 169 162 153 147 155 170 184 193 217 241 258 264 263 274 260 259 268 292 283 286 286 287 292 289 284 283 285
160 159 156 158 152 136 134 144 148 142 130 132 144 149 146 120 119 139 129 106 84 56 118 185 219 252 265 271 251 269 274 275 272 278 256 272 289 287 297 294 294 296 297
136 129 120 124 120 98 110 141 142 133 122 107 94 92 122 118 80 118 120 111 79 38 50 55 40 10 5 359 339 305 302 296 293 292 282 274 291 296 292 287 294 306 310
120 112 97 89 90 71 61 95 121 123 118 106 84 70 69 75 65 79 100 102 81 22 29 35 36 29 28 26 28 15 289 277 285 293 330 304 296 307 298 290 303 312 314
Height
1560 1561 1563 1565 1566 1568 1569 1570 1572 1573 1574 1576 1577 1578 1579 1579 1580 1581 1582 1582 1583 1585 1586 1587 1588 1589 1591 1592 1593 1594 1595 1596 1597 1598 1599 1600 1601 1602 1603 1603 1604 1605 1606
1560 1562 1564 1566 1567 1568 1570 1571 1572 1574 1575 1576 1577 1578 1579 1580 1581 1582 1582 1583 1584 1585 1586 1588 1589 1590 1591 1592 1593 1594 1595 1596 1597 1598 1599 1600 1601 1602 1603 1604 1604 1605 1606
1561 1563 1564 1566 1568 1569 1570 1572 1573 1574 1575 1577 1578 1579 1579 1580 1581 1582 1583 1584 1584 1585 1586 1587 1588 1590 1591 1592 1593 1594 1595 1596 1597 1598 1599 1600 1601 1602 1603 1604 1604 1605 1606
1561 1563 1565 1566 1568 1569 1571 1572 1573 1575 1576 1577 1578 1579 1580 1581 1581 1582 1583 1584 1584 1585 1586 1587 1588 1589 1590 1591 1592 1593 1594 1596 1597 1598 1599 1600 1601 1601 1602 1603 1604 1605 1605
1560 1562 1564 1566 1568 1569 1571 1572 1573 1575 1576 1577 1578 1579 1580 1581 1582 1582 1583 1584 1584 1585 1586 1587 1588 1589 1589 1590 1591 1592 1594 1595 1596 1597 1598 1599 1600 1601 1601 1602 1603 1604 1604
1559 1562 1564 1566 1567 1569 1570 1572 1573 1574 1576 1577 1578 1579 1580 1581 1582 1582 1583 1584 1584 1585 1585 1586 1587 1588 1589 1590 1590 1591 1592 1593 1594 1595 1597 1598 1599 1599 1600 1601 1602 1602 1603
1558 1561 1563 1565 1566 1568 1570 1571 1573 1574 1575 1577 1578 1579 1580 1581 1581 1582 1583 1583 1584 1584 1585 1586 1586 1587 1588 1588 1589 1590 1591 1592 1593 1594 1595 1596 1597 1598 1598 1599 1600 1601 1601
1557 1559 1561 1564 1566 1567 1569 1570 1572 1573 1575 1576 1577 1578 1579 1581 1580 1581 1582 1582 1583 1584 1585 1585 1586 1586 1587 1587 1588 1589 1590 1590 1591 1592 1593 1594 1595 1596 1596 1597 1598 1598 1599
1556 1558 1560 1563 1564 1566 1568 1570 1571 1572 1574 1575 1577 1578 1579 1579 1580 1581 1581 1582 1582 1583 1584 1584 1585 1585 1586 1586 1587 1588 1588 1589 1589 1590 1591 1592 1592 1593 1594 1595 1595 1596 1596
1554 1557 1559 1561 1563 1565 1567 1568 1570 1571 1573 1574 1575 1577 1578 1578 1579 1580 1581 1581 1581 1582 1583 1583 1584 1584 1585 1585 1586 1586 1587 1587 1588 1588 1589 1589 1590 1590 1591 1591 1592 1593 1593
1552 1555 1558 1560 1562 1563 1565 1567 1568 1570 1571 1572 1574 1575 1577 1578 1578 1579 1579 1580 1581 1581 1581 1582 1582 1583 1583 1584 1584 1585 1585 1586 1586 1586 1587 1587 1587 1587 1588 1588 1589 1590 1590
1550 1553 1555 1558 1560 1562 1564 1565 1567 1568 1569 1571 1572 1574 1575 1576 1577 1578 1578 1579 1579 1580 1580 1581 1581 1582 1582 1582 1582 1583 1583 1584 1584 1584 1585 1585 1585 1585 1585 1585 1586 1586 1587
1547 1550 1553 1556 1558 1560 1562 1563 1565 1566 1568 1569 1571 1572 1574 1575 1576 1577 1577 1578 1578 1579 1579 1579 1580 1580 1580 1580 1581 1581 1581 1581 1582 1582 1582 1582 1582 1582 1583 1583 1583 1583 1583
1546 1549 1552 1554 1556 1558 1560 1561 1563 1564 1566 1567 1568 1570 1572 1573 1574 1575 1576 1576 1576 1577 1577 1578 1578 1578 1578 1578 1579 1579 1579 1579 1579 1580 1580 1580 1580 1580 1580 1580 1580 1580 1580
1544 1547 1549 1552 1554 1556 1557 1559 1560 1562 1563 1565 1566 1568 1569 1570 1572 1572 1573 1574 1575 1575 1575 1575 1575 1576 1576 1576 1576 1576 1577 1577 1577 1577 1577 1577 1577 1577 1577 1577 1576 1577 1576
1541 1544 1547 1549 1551 1553 1555 1556 1558 1559 1561 1562 1564 1565 1566 1568 1569 1570 1571 1572 1572 1573 1572 1573 1573 1573 1573 1574 1574 1574 1574 1574 1574 1574 1574 1574 1574 1573 1573 1573 1573 1573 1573
1538 1541 1544 1546 1548 1550 1552 1553 1555 1556 1558 1559 1560 1562 1563 1565 1566 1567 1568 1569 1569 1570 1570 1570 1570 1570 1571 1571 1571 1571 1571 1571 1571 1571 1570 1570 1570 1570 1569 1569 1569 1569 1568
1535 1538 1541 1543 1545 1547 1548 1550 1552 1553 1555 1556 1558 1559 1561 1562 1563 1564 1565 1565 1566 1566 1566 1566 1566 1567 1567 1567 1567 1567 1567 1567 1567 1567 1566 1566 1566 1565 1565 1564 1564 1564 1563
1532 1535 1537 1539 1541 1543 1545 1546 1548 1549 1551 1553 1555 1556 1558 1559 1560 1561 1561 1562 1562 1563 1563 1562 1562 1563 1563 1563 1563 1563 1563 1563 1562 1562 1562 1561 1561 1560 1560 1559 1559 1558 1558
1529 1532 1534 1536 1538 1540 1542 1543 1544 1546 1548 1550 1552 1553 1554 1555 1556 1557 1558 1558 1559 1559 1559 1559 1559 1559 1559 1558 1558 1558 1558 1558 1557 1557 1556 1556 1555 1555 1554 1554 1553 1553 1552
1527 1529 1532 1534 1536 1537 1538 1540 1541 1543 1544 1546 1548 1549 1551 1552 1553 1554 1554 1555 1555 1555 1555 1555 1555 1554 1554 1554 1554 1553 1552 1552 1551 1551 1551 1550 1550 1549 1548 1548 1547 1546 1546
1524 1527 1529 1531 1532 1534 1536 1537 1539 1540 1542 1543 1545 1546 1548 1548 1549 1550 1550 1551 1551 1551 1551 1551 1550 1550 1550 1550 1549 1548 1548 1547 1546 1546 1545 1545 1544 1543 1542 1542 1541 1540 1539
1521 1523 1526 1528 1530 1532 1534 1535 1537 1538 1539 1540 1542 1543 1544 1545 1546 1546 1547 1547 1547 1547 1547 1547 1547 1546 1546 1545 1545 1544 1543 1542 1541 1540 1539 1538 1538 1537 1537 1536 1535 1534 1533
1518 1520 1523 1525 1527 1529 1531 1533 1534 1535 1536 1537 1539 1540 1541 1542 1542 1543 1543 1543 1543 1543 1543 1543 1543 1542 1542 1541 1540 1540 1538 1537 1536 1535 1535 1533 1532 1531 1531 1530 1529 1528 1527
1515 1517 1520 1522 1524 1526 1528 1530 1531 1532 1533 1535 1536 1537 1538 1538 1539 1540 1540 1540 1540 1540 1540 1539 1539 1539 1538 1537 1536 1536 1534 1533 1531 1531 1530 1528 1526 1525 1524 1523 1523 1522 1520
1512 1515 1517 1519 1521 1524 1526 1527 1529 1530 1531 1532 1533 1535 1536 1536 1537 1537 1537 1537 1537 1537 1537 1536 1536 1535 1534 1533 1532 1531 1530 1529 1527 1526 1524 1523 1522 1520 1518 1517 1516 1515 1513